TimeEST,TemperatureF,Dew PointF,Humidity,Sea Level PressureIn,VisibilityMPH,Wind Direction,Wind SpeedMPH,Gust SpeedMPH,PrecipitationIn,Events,Conditions,WindDirDegrees,DateUTC
12:53 AM,41.0,30.9,67,30.13,10.0,NE,4.6,-,N/A,,Overcast,50,2012-11-04 04:53:00
1:53 AM,39.9,30.9,70,30.13,10.0,NE,5.8,-,N/A,,Overcast,50,2012-11-04 05:53:00
1:53 AM,39.9,30.9,70,30.14,10.0,Calm,Calm,-,N/A,,Overcast,0,2012-11-04 06:53:00
2:53 AM,34.0,30.0,85,30.13,10.0,North,3.5,-,N/A,,Scattered Clouds,10,2012-11-04 07:53:00
3:53 AM,33.1,30.0,89,30.13,10.0,Calm,Calm,-,N/A,,Mostly Cloudy,0,2012-11-04 08:53:00
4:53 AM,30.9,28.0,89,30.14,10.0,Calm,Calm,-,N/A,,Mostly Cloudy,0,2012-11-04 09:53:00
5:53 AM,28.9,26.1,89,30.16,10.0,Calm,Calm,-,N/A,,Clear,0,2012-11-04 10:53:00
6:53 AM,27.0,25.0,92,30.15,10.0,Calm,Calm,-,N/A,,Clear,0,2012-11-04 11:53:00
7:53 AM,28.9,26.1,89,30.17,10.0,Calm,Calm,-,N/A,,Clear,0,2012-11-04 12:53:00
8:53 AM,37.9,30.9,76,30.17,10.0,North,3.5,-,N/A,,Clear,360,2012-11-04 13:53:00
9:53 AM,41.0,32.0,70,30.17,10.0,ENE,5.8,-,N/A,,Clear,60,2012-11-04 14:53:00
10:53 AM,45.0,30.9,58,30.17,10.0,NNE,4.6,-,N/A,,Overcast,20,2012-11-04 15:53:00
11:53 AM,44.1,30.9,60,30.15,10.0,Variable,3.5,-,N/A,,Overcast,0,2012-11-04 16:53:00
12:53 PM,44.1,30.0,58,30.15,10.0,ENE,3.5,-,N/A,,Overcast,60,2012-11-04 17:53:00
1:53 PM,45.0,30.0,56,30.14,10.0,North,5.8,-,N/A,,Overcast,10,2012-11-04 18:53:00
2:53 PM,45.0,30.9,58,30.14,10.0,NNE,5.8,-,N/A,,Overcast,20,2012-11-04 19:53:00
3:53 PM,44.1,28.9,55,30.14,10.0,North,5.8,-,N/A,,Overcast,10,2012-11-04 20:53:00
4:53 PM,44.1,28.9,55,30.14,10.0,North,4.6,-,N/A,,Overcast,10,2012-11-04 21:53:00
5:53 PM,39.9,28.9,65,30.14,10.0,NNE,5.8,-,N/A,,Overcast,20,2012-11-04 22:53:00
6:53 PM,36.0,30.0,79,30.16,10.0,North,3.5,-,N/A,,Overcast,360,2012-11-04 23:53:00
7:53 PM,37.0,30.9,79,30.16,10.0,Calm,Calm,-,N/A,,Overcast,0,2012-11-05 00:53:00
8:53 PM,37.0,30.9,79,30.16,10.0,North,3.5,-,N/A,,Overcast,350,2012-11-05 01:53:00
9:53 PM,37.9,30.9,76,30.16,10.0,NNE,4.6,-,N/A,,Overcast,20,2012-11-05 02:53:00
10:53 PM,37.0,30.9,79,30.16,10.0,NNE,4.6,-,N/A,,Overcast,30,2012-11-05 03:53:00